, FL

(GMT )
Crestview

Weather History for KEGI - March, 2012

Change the Weather History Date:

Friday, March 23, 2012

  Actual Average Record
Temperature  
Mean Temperature 67 °F -  
Max Temperature 73 °F - - ()
Min Temperature 61 °F - - ()
Cooling Degree Days 2    
Growing Degree Days 17 (Base 50)    
Moisture  
Dew Point 68 °F    
Average Humidity 94    
Maximum Humidity 100    
Minimum Humidity 88    
Precipitation  
Precipitation 1.13 in - - ()
Sea Level Pressure  
Sea Level Pressure 30.04 in    
Wind  
Wind Speed 9 mph (SSE)    
Max Wind Speed 17 mph    
Max Gust Speed 24 mph    
Visibility 9 miles    
Events Fog , Rain , Thunderstorm    
Averages and records for this station are not official NWS values.
T = Trace of Precipitation, MM = Missing Value Source: NWS Daily Summary

Daily Weather History Graph

Daily Weather History Graph

Search for Another Location

Airport or City:

Trip Planner

Search our weather history database for the weather conditions in past years. The results will help you decide how hot, cold, wet, or windy it might be!

Date:

Astronomy

Mar. 23, 2012 Rise Set
Actual Time 6:45 AM CDT 6:59 PM CDT
Civil Twilight 6:21 AM CDT 7:23 PM CDT
Nautical Twilight 5:53 AM CDT 7:51 PM CDT
Astronomical Twilight 5:25 AM CDT 8:20 PM CDT
Moon 7:01 AM CDT (3/23) 8:11 PM CDT (3/23)
Length of Visible Light 13h 02m
Length of Day
12h 14m
New Moon, 1% of the Moon is Illuminated
Mar 23
New Moon
Mar 30
First Quarter
Apr 6
Full
Apr 13
Last Quarter
Apr 21
New

Hourly Weather History & Observations

Time (CDT) Temp. Dew Point Humidity Pressure Visibility Wind Dir Wind Speed Gust Speed Precip Events Conditions
12:55 AM 70.9 °F 68.7 °F 93% 30.06 in 10.0 mi SE 6.9 mph - N/A   Overcast
1:00 AM 71.6 °F 68.0 °F 88% 30.06 in 10.0 mi SE 6.9 mph - N/A   Overcast
1:46 AM 71.6 °F 69.8 °F 94% 30.05 in 10.0 mi SE 6.9 mph - N/A   Overcast
1:55 AM 70.9 °F 69.1 °F 94% 30.05 in 10.0 mi SE 6.9 mph - N/A   Overcast
1:59 AM 71.6 °F 69.8 °F 94% 30.05 in 10.0 mi SE 5.8 mph - N/A   Mostly Cloudy
2:04 AM 71.6 °F 69.8 °F 94% 30.05 in 10.0 mi SE 5.8 mph - N/A   Overcast
2:17 AM 71.6 °F 69.8 °F 94% 30.05 in 10.0 mi SE 5.8 mph - N/A   Overcast
2:29 AM 71.6 °F 69.8 °F 94% 30.05 in 10.0 mi SE 4.6 mph - N/A   Overcast
2:55 AM 71.1 °F 69.3 °F 94% 30.04 in 10.0 mi SE 6.9 mph - N/A   Overcast
3:27 AM 71.6 °F 69.8 °F 94% 30.04 in 10.0 mi SSE 8.1 mph - N/A   Overcast
3:55 AM 71.4 °F 69.3 °F 93% 30.04 in 10.0 mi SSE 9.2 mph - N/A   Overcast
3:56 AM 71.6 °F 69.8 °F 94% 30.04 in 10.0 mi SSE 9.2 mph - N/A   Overcast
4:03 AM 71.6 °F 69.8 °F 94% 30.03 in 10.0 mi SSE 10.4 mph - N/A   Overcast
4:13 AM 71.6 °F 69.8 °F 94% 30.03 in 10.0 mi SSE 11.5 mph - N/A   Overcast
4:21 AM 71.6 °F 69.8 °F 94% 30.03 in 10.0 mi SSE 10.4 mph - N/A   Overcast
4:29 AM 71.6 °F 69.8 °F 94% 30.03 in 10.0 mi SSE 10.4 mph - N/A   Overcast
4:37 AM 71.6 °F 69.8 °F 94% 30.03 in 10.0 mi SSE 6.9 mph - N/A   Overcast
4:39 AM 71.6 °F 69.8 °F 94% 30.03 in 10.0 mi SE 8.1 mph - N/A   Overcast
4:44 AM 71.6 °F 69.8 °F 94% 30.03 in 10.0 mi SSE 10.4 mph - N/A   Overcast
4:55 AM 71.8 °F 69.3 °F 92% 30.03 in 10.0 mi SSE 9.2 mph - N/A   Overcast
4:56 AM 71.6 °F 69.8 °F 94% 30.03 in 10.0 mi SSE 8.1 mph - N/A   Overcast
4:57 AM 71.6 °F 69.8 °F 94% 30.03 in 10.0 mi SSE 8.1 mph - N/A   Overcast
5:12 AM 71.6 °F 69.8 °F 94% 30.03 in 10.0 mi SSE 9.2 mph - N/A   Overcast
5:15 AM 71.6 °F 69.8 °F 94% 30.03 in 10.0 mi SSE 8.1 mph - N/A   Overcast
5:29 AM 71.6 °F 69.8 °F 94% 30.03 in 10.0 mi SSE 6.9 mph - N/A   Overcast
5:45 AM 71.6 °F 69.8 °F 94% 30.04 in 10.0 mi SSE 9.2 mph - N/A   Overcast
5:55 AM 71.8 °F 69.3 °F 92% 30.04 in 10.0 mi SSE 10.4 mph - N/A   Overcast
6:28 AM 71.6 °F 69.8 °F 94% 30.04 in 10.0 mi SSE 10.4 mph - N/A   Overcast
6:34 AM 71.6 °F 69.8 °F 94% 30.04 in 10.0 mi SSE 9.2 mph - N/A   Overcast
6:50 AM 71.6 °F 69.8 °F 94% 30.04 in 10.0 mi SSE 10.4 mph - N/A   Overcast
6:55 AM 71.4 °F 69.6 °F 94% 30.04 in 10.0 mi SSE 10.4 mph - N/A   Overcast
6:56 AM 71.6 °F 69.8 °F 94% 30.04 in 10.0 mi SSE 11.5 mph - N/A   Overcast
6:57 AM 71.6 °F 69.8 °F 94% 30.04 in 10.0 mi SSE 11.5 mph - N/A   Overcast
7:16 AM 71.6 °F 69.8 °F 94% 30.04 in 10.0 mi South 10.4 mph - N/A   Overcast
7:33 AM 71.6 °F 69.8 °F 94% 30.04 in 10.0 mi SSE 11.5 mph - N/A   Overcast
7:55 AM 72.1 °F 69.8 °F 92% 30.05 in 10.0 mi SSE 11.5 mph - N/A   Overcast
7:59 AM 71.6 °F 69.8 °F 94% 30.05 in 10.0 mi SSE 11.5 mph - N/A   Overcast
8:22 AM 73.4 °F 69.8 °F 88% 30.06 in 10.0 mi South 11.5 mph - N/A   Overcast
8:32 AM 73.4 °F 69.8 °F 88% 30.05 in 10.0 mi SSE 16.1 mph - N/A   Overcast
8:55 AM 72.5 °F 69.6 °F 91% 30.04 in 10.0 mi SSE 12.7 mph 21.9 mph N/A   Overcast
9:39 AM 73.4 °F 69.8 °F 88% 30.05 in 6.0 mi South 16.1 mph 24.2 mph N/A Rain Light Rain Showers
9:55 AM 72.0 °F 70.3 °F 95% 30.07 in 9.0 mi SSE 16.1 mph - 0.01 in Rain Light Rain
10:55 AM 72.1 °F 70.7 °F 95% 30.09 in 5.0 mi SE 11.5 mph - 0.03 in Rain , Thunderstorm Light Thunderstorms and Rain
11:28 AM 73.4 °F 71.6 °F 94% 30.06 in 9.0 mi South 11.5 mph - N/A Rain Light Rain
12:02 PM 71.6 °F 71.6 °F 100% 30.07 in 5.0 mi South 12.7 mph - N/A Rain , Thunderstorm Light Thunderstorms and Rain
12:08 PM 71.6 °F 71.6 °F 100% 30.07 in 1.0 mi South 17.3 mph - N/A Rain , Thunderstorm Thunderstorms and Rain
12:32 PM 71.6 °F 69.8 °F 94% 30.06 in 3.0 mi SSW 9.2 mph - N/A Rain , Thunderstorm Light Thunderstorms and Rain
12:55 PM 68.0 °F 70.9 °F 100% 30.09 in 0.5 mi SSW 10.4 mph - 0.55 in Fog , Rain , Thunderstorm Heavy Thunderstorms and Rain
1:09 PM 68.0 °F 66.2 °F 94% 30.06 in 1.0 mi South 15.0 mph 17.3 mph N/A Rain , Thunderstorm Thunderstorms and Rain
1:16 PM 68.0 °F 64.4 °F 88% 30.05 in 3.0 mi South 8.1 mph 17.3 mph N/A Rain , Thunderstorm Light Thunderstorms and Rain
1:55 PM 68.0 °F 65.5 °F 92% 30.04 in 6.0 mi South 9.2 mph - 0.43 in Rain , Thunderstorm Light Thunderstorms and Rain
2:57 PM 66.7 °F 64.4 °F 92% 30.02 in 7.0 mi SW 10.4 mph - 0.09 in Rain , Thunderstorm Light Thunderstorms and Rain
3:13 PM 66.2 °F 64.4 °F 94% 30.01 in 10.0 mi South 13.8 mph - N/A Rain , Thunderstorm Light Thunderstorms and Rain
3:25 PM 66.2 °F 62.6 °F 88% 30.01 in 10.0 mi SSE 8.1 mph - N/A   Overcast
3:55 PM 66.0 °F 64.0 °F 93% 30.02 in 10.0 mi South 6.9 mph - 0.02 in   Overcast
4:55 PM 67.5 °F 64.6 °F 90% 30.00 in 10.0 mi South 8.1 mph - N/A   Overcast
5:40 PM 68.0 °F 64.4 °F 88% 30.00 in 10.0 mi South 12.7 mph - N/A   Overcast
5:55 PM 67.6 °F 64.6 °F 90% 30.01 in 10.0 mi South 11.5 mph - N/A   Overcast
6:25 PM 68.0 °F 64.4 °F 88% 29.99 in 10.0 mi South 5.8 mph - N/A   Mostly Cloudy
6:55 PM 67.1 °F 64.0 °F 90% 30.00 in 10.0 mi South 4.6 mph - N/A   Mostly Cloudy
7:55 PM 63.9 °F 63.3 °F 98% 29.99 in 10.0 mi Calm Calm - N/A   Mostly Cloudy
8:55 PM 62.2 °F 61.9 °F 99% 30.00 in 10.0 mi Calm Calm - N/A   Scattered Clouds
9:55 PM 61.0 °F 60.8 °F 99% 30.01 in 7.0 mi SSE 3.5 mph - N/A   Scattered Clouds
10:55 PM 61.2 °F 61.0 °F 99% 30.00 in 6.0 mi SSE 3.5 mph - N/A   Scattered Clouds
11:55 PM 61.2 °F 61.0 °F 99% 29.98 in 6.0 mi South 4.6 mph - N/A   Scattered Clouds